Stevensville, MD

10:49 AM EST on February 19, 2017 (GMT -0500)
Stevensville

Weather History for KW29 - January, 2013

Change the Weather History Date:

Monday, January 7, 2013

  Actual Average (KESN) Record (KESN)
Temperature  
Mean Temperature 39 °F -  
Max Temperature 46 °F 41 °F 68 °F (1950)
Min Temperature 32 °F 26 °F 8 °F (2014)
Degree Days  
Heating Degree Days 26    
Moisture  
Dew Point 29 °F    
Average Humidity 67    
Maximum Humidity 100    
Minimum Humidity 50    
Precipitation  
Precipitation 0.00 in - - ()
Sea Level Pressure  
Sea Level Pressure 30.35 in    
Wind  
Wind Speed 8 mph (NW)    
Max Wind Speed 15 mph    
Max Gust Speed 20 mph    
Visibility 10 miles    
Events      
Averages and records for this station are not official NWS values.
T = Trace of Precipitation, MM = Missing Value Source: NWS Daily Summary

Daily Weather History Graph

Daily Weather History Graph

Search for Another Location

Airport or City:

Trip Planner

Search our weather history database for the weather conditions in past years. The results will help you decide how hot, cold, wet, or windy it might be!

Date:

Astronomy

Jan. 07, 2013 Rise Set
Actual Time 7:24 AM EST 4:59 PM EST
Civil Twilight 6:54 AM EST 5:29 PM EST
Nautical Twilight 6:21 AM EST 6:02 PM EST
Astronomical Twilight 5:49 AM EST 6:34 PM EST
Moon 2:46 AM EST (1/7) 1:08 PM EST (1/7)
Length of Visible Light 10h 34m
Length of Day
9h 35m
Waning Crescent, 23% of the Moon is Illuminated
Jan 7
Waning Crescent
Jan 11
New
Jan 18
First Quarter
Jan 26
Full
Feb 3
Last Quarter

Hourly Weather History & Observations

Time (EST) Temp. Windchill Dew Point Humidity Pressure Visibility Wind Dir Wind Speed Gust Speed Precip Events Conditions
12:08 AM 44.6 °F 39.7 °F 28.4 °F 53% 30.14 in 10.0 mi WNW 9.2 mph - N/A   Mostly Cloudy
12:29 AM 44.6 °F 39.2 °F 28.4 °F 53% 30.15 in 10.0 mi WNW 10.4 mph 16.1 mph N/A   Mostly Cloudy
12:51 AM 44.6 °F 39.7 °F 28.4 °F 53% 30.15 in 10.0 mi WNW 9.2 mph - N/A   Mostly Cloudy
1:33 AM 42.8 °F 37.5 °F 30.2 °F 61% 30.16 in 10.0 mi WNW 9.2 mph - N/A   Overcast
1:55 AM 42.8 °F 37.0 °F 30.2 °F 61% 30.17 in 10.0 mi WNW 10.4 mph - N/A   Scattered Clouds
2:16 AM 42.8 °F 38.6 °F 30.2 °F 61% 30.18 in 10.0 mi WNW 6.9 mph - N/A   Clear
2:37 AM 41.0 °F 36.4 °F 30.2 °F 65% 30.18 in 10.0 mi WNW 6.9 mph - N/A   Clear
2:59 AM 41.0 °F 36.4 °F 30.2 °F 65% 30.19 in 10.0 mi WNW 6.9 mph - N/A   Clear
3:20 AM 41.0 °F 35.2 °F 30.2 °F 65% 30.19 in 10.0 mi WNW 9.2 mph - N/A   Clear
3:41 AM 42.8 °F 38.0 °F 30.2 °F 61% 30.20 in 10.0 mi WNW 8.1 mph - N/A   Mostly Cloudy
4:02 AM 41.0 °F 35.2 °F 30.2 °F 65% 30.20 in 10.0 mi WNW 9.2 mph - N/A   Mostly Cloudy
4:24 AM 41.0 °F 35.2 °F 30.2 °F 65% 30.22 in 10.0 mi WNW 9.2 mph - N/A   Scattered Clouds
4:45 AM 41.0 °F 35.2 °F 30.2 °F 65% 30.23 in 10.0 mi WNW 9.2 mph - N/A   Clear
5:06 AM 41.0 °F 36.4 °F 30.2 °F 65% 30.24 in 10.0 mi NW 6.9 mph - N/A   Clear
5:28 AM 41.0 °F 35.8 °F 30.2 °F 65% 30.25 in 10.0 mi WNW 8.1 mph - N/A   Scattered Clouds
5:49 AM 41.0 °F 35.8 °F 30.2 °F 65% 30.26 in 10.0 mi WNW 8.1 mph - N/A   Mostly Cloudy
6:10 AM 41.0 °F 37.1 °F 30.2 °F 65% 30.27 in 10.0 mi WNW 5.8 mph - N/A   Overcast
6:53 AM 41.0 °F 35.2 °F 30.2 °F 65% 30.30 in 10.0 mi NW 9.2 mph - N/A   Mostly Cloudy
7:14 AM 41.0 °F 35.8 °F 30.2 °F 65% 30.31 in 10.0 mi WNW 8.1 mph - N/A   Scattered Clouds
7:35 AM 41.0 °F 35.2 °F 30.2 °F 65% 30.31 in 10.0 mi WNW 9.2 mph - N/A   Clear
7:57 AM 41.0 °F 36.4 °F 30.2 °F 65% 30.33 in 10.0 mi WNW 6.9 mph - N/A   Clear
8:18 AM 41.0 °F 36.4 °F 30.2 °F 65% 30.34 in 10.0 mi WNW 6.9 mph - N/A   Clear
8:39 AM 41.0 °F 36.4 °F 28.4 °F 61% 30.35 in 10.0 mi WNW 6.9 mph - N/A   Clear
9:00 AM 42.8 °F 38.0 °F 28.4 °F 57% 30.37 in 10.0 mi WNW 8.1 mph - N/A   Clear
9:22 AM 42.8 °F 37.0 °F 28.4 °F 57% 30.38 in 10.0 mi WNW 10.4 mph - N/A   Clear
9:43 AM 42.8 °F 37.0 °F 28.4 °F 57% 30.39 in 10.0 mi WNW 10.4 mph - N/A   Clear
10:04 AM 44.6 °F 38.1 °F 28.4 °F 53% 30.40 in 10.0 mi NW 13.8 mph 18.4 mph N/A   Clear
10:25 AM 44.6 °F 39.2 °F 28.4 °F 53% 30.40 in 10.0 mi WNW 10.4 mph 18.4 mph N/A   Clear
10:47 AM 44.6 °F 37.8 °F 28.4 °F 53% 30.41 in 10.0 mi NW 15.0 mph 19.6 mph N/A   Clear
11:08 AM 44.6 °F 38.8 °F 28.4 °F 53% 30.41 in 10.0 mi NW 11.5 mph - N/A   Clear
11:29 AM 44.6 °F 39.2 °F 28.4 °F 53% 30.40 in 10.0 mi NW 10.4 mph - N/A   Clear
11:50 AM 44.6 °F 38.8 °F 28.4 °F 53% 30.39 in 10.0 mi NW 11.5 mph - N/A   Clear
12:12 PM 44.6 °F 40.2 °F 28.4 °F 53% 30.39 in 10.0 mi NW 8.1 mph - N/A   Clear
12:54 PM 46.4 °F 41.5 °F 28.4 °F 50% 30.39 in 10.0 mi NNW 10.4 mph - N/A   Clear
1:15 PM 44.6 °F 38.4 °F 28.4 °F 53% 30.39 in 10.0 mi NNW 12.7 mph - N/A   Clear
1:58 PM 44.6 °F 39.2 °F 28.4 °F 53% 30.39 in 10.0 mi NNW 10.4 mph - N/A   Clear
2:19 PM 44.6 °F 39.7 °F 28.4 °F 53% 30.40 in 10.0 mi North 9.2 mph - N/A   Clear
2:40 PM 44.6 °F 39.7 °F 28.4 °F 53% 30.41 in 10.0 mi NNW 9.2 mph - N/A   Clear
3:02 PM 44.6 °F 39.2 °F 28.4 °F 53% 30.41 in 10.0 mi NNW 10.4 mph - N/A   Clear
3:23 PM 44.6 °F 39.7 °F 28.4 °F 53% 30.41 in 10.0 mi NNW 9.2 mph - N/A   Clear
3:44 PM 42.8 °F 38.6 °F 28.4 °F 57% 30.41 in 10.0 mi North 6.9 mph - N/A   Clear
4:05 PM 42.8 °F 39.3 °F 28.4 °F 57% 30.42 in 10.0 mi NNW 5.8 mph - N/A   Clear
4:27 PM 42.8 °F 39.3 °F 28.4 °F 57% 30.42 in 10.0 mi North 5.8 mph - N/A   Clear
4:48 PM 41.0 °F 38.0 °F 28.4 °F 61% 30.42 in 10.0 mi North 4.6 mph - N/A   Clear
5:09 PM 41.0 °F - 28.4 °F 61% 30.43 in 10.0 mi Calm Calm - N/A   Clear
5:52 PM 39.2 °F 37.0 °F 30.2 °F 70% 30.44 in 10.0 mi North 3.5 mph - N/A   Clear
6:13 PM 37.4 °F - 30.2 °F 75% 30.44 in 10.0 mi Calm Calm - N/A   Clear
6:34 PM 37.4 °F - 30.2 °F 75% 30.44 in 10.0 mi Calm Calm - N/A   Clear
6:56 PM 35.6 °F - 30.2 °F 81% 30.45 in 10.0 mi Calm Calm - N/A   Clear
7:17 PM 35.6 °F - 30.2 °F 81% 30.44 in 10.0 mi Calm Calm - N/A   Clear
7:38 PM 33.8 °F - 30.2 °F 87% 30.44 in 10.0 mi Calm Calm - N/A   Clear
7:59 PM 33.8 °F - 30.2 °F 87% 30.44 in 10.0 mi Calm Calm - N/A   Clear
8:21 PM 33.8 °F - 30.2 °F 87% 30.44 in 10.0 mi Calm Calm - N/A   Clear
8:42 PM 32.0 °F - 30.2 °F 93% 30.44 in 10.0 mi Calm Calm - N/A   Clear
9:03 PM 32.0 °F - 30.2 °F 93% 30.45 in 10.0 mi Calm Calm - N/A   Clear
9:24 PM 32.0 °F - 30.2 °F 93% 30.44 in 10.0 mi Calm Calm - N/A   Clear
9:46 PM 32.0 °F - 30.2 °F 93% 30.44 in 10.0 mi Calm Calm - N/A   Clear
10:07 PM 32.0 °F - 30.2 °F 93% 30.44 in 10.0 mi Calm Calm - N/A   Clear
10:28 PM 32.0 °F - 30.2 °F 93% 30.44 in 10.0 mi Calm Calm - N/A   Clear
10:50 PM 32.0 °F - 32.0 °F 100% 30.43 in 10.0 mi Calm Calm - N/A   Clear
11:11 PM 32.0 °F - 30.2 °F 93% 30.43 in 10.0 mi Calm Calm - N/A   Clear
11:32 PM 32.0 °F 28.7 °F 30.2 °F 93% 30.43 in 7.0 mi SE 3.5 mph - N/A   Clear
11:54 PM 32.0 °F 27.5 °F 30.2 °F 93% 30.43 in 7.0 mi SSE 4.6 mph - N/A   Clear